This is the latest recevied weather packets stored in our database for station/object OH6HPS. If no packets are shown the sender has not sent any weather packets the latest 10 day(s).
| Time | Temp. | Humidity | Pressure | Rain* | Wind** | Luminosity | Snow |
|---|---|---|---|---|---|---|---|
| 1777908268 | 11.11° C | 76% | 1001.3 hPa | 0 mm | - | 51 W/m² | - |
| 1777907678 | 11.67° C | 76% | 1001.4 hPa | 0 mm | - | 81 W/m² | - |
| 1777907067 | 11.67° C | 76% | 1001.3 hPa | 0 mm | - | 178 W/m² | - |
| 1777906467 | 11.67° C | 75% | 1001.4 hPa | 0 mm | - | 199 W/m² | - |
| 1777905867 | 11.67° C | 75% | 1001.5 hPa | 0 mm | - | 269 W/m² | - |
| 1777905266 | 12.22° C | 75% | 1001.4 hPa | 0 mm | - | 195 W/m² | - |
| 1777904666 | 12.22° C | 73% | 1001.5 hPa | 0 mm | - | 157 W/m² | - |
| 1777904065 | 12.22° C | 75% | 1001.5 hPa | 0 mm | - | 269 W/m² | - |
| 1777903478 | 12.22° C | 75% | 1001.4 hPa | 0 mm | - | 181 W/m² | - |
| 1777902865 | 12.22° C | 76% | 1001.4 hPa | 0 mm | - | 151 W/m² | - |
| 1777902265 | 12.22° C | 77% | 1001.3 hPa | 0 mm | - | 150 W/m² | - |
| 1777901670 | 12.78° C | 75% | 1001.3 hPa | 0 mm | - | 178 W/m² | - |
| 1777901065 | 12.78° C | 75% | 1001.3 hPa | 0 mm | - | 271 W/m² | - |
| 1777900464 | 12.22° C | 76% | 1001.4 hPa | 0 mm | - | 259 W/m² | - |
| 1777899863 | 12.22° C | 77% | 1001.5 hPa | 0 mm | - | 174 W/m² | - |
| 1777899264 | 12.78° C | 76% | 1001.4 hPa | 0 mm | - | 204 W/m² | - |
| 1777898663 | 12.78° C | 75% | 1001.5 hPa | 0 mm | - | 257 W/m² | - |
| 1777898063 | 12.78° C | 75% | 1001.5 hPa | 0 mm | - | 466 W/m² | - |
| 1777897462 | 12.22° C | 79% | 1001.5 hPa | 0 mm | - | 825 W/m² | - |
| 1777896862 | 11.67° C | 80% | 1001.6 hPa | 0 mm | - | 424 W/m² | - |
| 1777896262 | 11.11° C | 80% | 1001.7 hPa | 0 mm | - | 311 W/m² | - |
| 1777895662 | 11.11° C | 82% | 1001.8 hPa | 0 mm | - | 410 W/m² | - |
| 1777895062 | 10.56° C | 81% | 1001.8 hPa | 0 mm | - | 972 W/m² | - |
| 1777894462 | 10.56° C | 81% | 1001.8 hPa | 0 mm | - | 378 W/m² | - |
| 1777893863 | 10.56° C | 81% | 1001.8 hPa | 0 mm | - | 287 W/m² | - |
* Rain latest hour (hover to see other rain measurements)
** Current wind speed in m/s (hover to see current wind gust speed)